Location: Alpha Ridge Park
(39.3209°N, 76.9128°W)
Time: 23:00:28
(UTC-04:00)

S-56A Canister/Altair - Pass Details

Date: 22 May 2019
Orbit: 633 x 2499 km, 38.9° (Epoch: 16 June)

Event Time Altitude Azimuth Distance (km) Brightness Sun altitude
Rises 06:46:16 0° 281° (W) 4,361 10.9 9.4°
Reaches altitude 10° 06:48:48 10° 280° (W) 3,602 10.5 9.9°
Maximum altitude 06:58:29 75° 197° (SSW) 1,989 9.7 11.7°
Drops below altitude 10° 07:12:28 10° 115° (ESE) 5,016 12.6 14.3°
Sets 07:16:41 0° 114° (ESE) 6,125 13.0 15.1°
